#timestamp,LO_Frequency,Hit,StdDev 
1457114415.6,286046993.9,N
1457114435.4,286046993.4,N
1457114455.2,286046994.9,N
1457114475.1,286046994.3,N
1457114476.0,286046994.3,N
1457114495.8,286046994.6,N
1457114515.6,286046995.4,N
1457114535.5,286046995.8,N
1457114555.3,286046995.4,N
1457114575.1,286046995.0,N
1457114595.9,286046993.7,Y
1457114615.7,286047002.7,P
1457114635.5,286046998.9,N
1457114655.4,286046999.4,N
1457114675.2,286046998.6,N
1457114695.0,286046996.5,N
1457114695.9,286046996.5,N
1457114715.8,286046997.5,N
1457114735.6,286046995.4,N
1457114755.4,286046996.2,N
1457114775.3,286046991.9,Y
1457114795.1,286046993.7,P
1457114796.0,286046993.7,P
1457114815.8,286046996.4,N
1457114835.7,286046997.3,N
1457114855.5,286046998.5,N
1457114875.3,286047001.0,N
1457114895.1,286046999.2,N
1457114915.9,286046995.2,N
1457114935.7,286046997.5,N
1457114955.5,286046997.7,N
1457114975.4,286046995.7,N
1457114995.2,286046994.5,N
1457115015.0,286046994.9,N
1457115015.9,286046994.9,N
1457115035.8,286046995.3,N
1457115055.6,286046997.3,N
1457115075.4,286047001.2,N
1457115095.3,286046995.6,N
1457115115.1,286046992.6,Y
1457115116.0,286046992.6,P
1457115135.8,286046997.7,N
1457115155.7,286047000.7,N
1457115175.5,286046998.4,N
1457115195.3,286046995.8,N
1457115215.2,286046999.6,N
1457115235.9,286046996.7,N
1457115255.7,286046997.4,N
1457115275.5,286046999.8,N
1457115295.4,286047002.5,N
1457115315.2,286046999.9,N
1457115335.0,286047001.8,N
1457115335.9,286047001.8,N
1457115355.8,286047002.1,N
1457115375.6,286047008.5,Y
1457115395.4,286047012.1,P
1457115415.3,286047007.9,N
1457115435.1,286047009.6,N
1457115455.8,286047008.8,N
1457115475.7,286047007.8,N
1457115495.5,286047009.6,N
1457115515.3,286047008.1,N
1457115535.2,286047008.3,N
1457115555.9,286047011.1,Y
1457115575.7,286047001.6,P
1457115595.6,286046999.8,N
1457115615.4,286047001.7,N
1457115635.2,286047003.6,N
1457115655.1,286047003.0,N
1457115656.0,286047003.0,N
1457115675.8,286047000.5,N
1457115695.6,286046998.1,N
1457115715.4,286047000.5,N
1457115735.3,286046997.6,N
1457115755.1,286046996.5,N
1457115775.8,286047000.1,N
1457115795.7,286047000.9,N
1457115815.5,286046997.3,N
1457115835.3,286046993.8,N
1457115855.2,286046993.0,N
1457115875.9,286046991.7,N
1457115895.7,286046993.7,N
1457115915.6,286046995.1,N
1457115935.4,286046996.5,N
1457115955.2,286046996.5,N
1457115975.1,286046999.1,N
1457115976.0,286046999.1,N
1457115995.8,286047001.0,N
1457116015.6,286047000.9,N
1457116035.5,286047001.6,N
1457116055.3,286047000.9,N
1457116075.1,286046997.8,N
1457116095.8,286046995.3,N
1457116115.7,286046997.3,N
1457116135.5,286046994.9,N
1457116155.3,286046998.5,N
1457116175.2,286046998.1,N
1457116195.9,286047001.3,N
1457116215.7,286047003.6,N
1457116235.6,286047002.2,N
1457116255.4,286047002.2,N
1457116275.2,286047003.1,N
1457116295.1,286047006.9,N
1457116296.0,286047006.9,N
1457116315.8,286047006.8,N
1457116335.6,286047006.3,N
1457116355.5,286047007.5,N
1457116375.3,286047008.5,N
1457116395.1,286047010.1,N
1457116415.8,286047011.0,N
1457116435.7,286047013.3,N
1457116455.5,286047012.9,N
1457116475.3,286047013.3,N
1457116495.2,286047015.4,N
1457116515.9,286047015.0,N
1457116535.7,286047018.3,Y
1457116555.6,286047012.1,P
1457116575.4,286047011.8,P
1457116595.2,286047015.4,P
1457116615.1,286047018.6,Y
1457116616.0,286047018.6,P
1457116635.8,286047008.7,N
1457116655.6,286047008.0,N
1457116675.5,286047008.9,N
1457116695.3,286047009.7,N
1457116715.1,286047010.6,N
1457116735.9,286047008.5,N
1457116755.7,286047012.2,Y
1457116775.5,286047001.4,P
1457116795.4,286047002.1,N
1457116815.2,286047003.5,N
1457116835.0,286047003.7,N
1457116835.9,286047003.7,N
1457116855.8,286047003.1,N
1457116875.6,286047003.7,N
1457116895.4,286046998.7,N
1457116915.3,286046999.2,N
1457116935.1,286046996.6,N
1457116936.0,286046996.6,N
1457116955.8,286046997.7,N
1457116975.7,286046995.2,N
1457116995.5,286046999.3,N
1457117015.3,286046997.7,N
1457117035.1,286046994.6,N
1457117055.9,286046992.3,N
1457117075.7,286046996.2,N
1457117095.5,286046996.2,N
1457117115.4,286046994.5,N
1457117135.2,286046992.0,N
1457117155.0,286046994.7,N
1457117155.9,286046994.7,N
1457117175.8,286046991.9,N
1457117195.6,286046991.9,N
1457117215.4,286046991.1,N
1457117235.3,286046989.6,N
1457117255.1,286046987.2,N
1457117275.8,286046987.4,N
1457117295.7,286046983.7,Y
1457117315.5,286046988.9,P
1457117335.3,286046987.1,P
1457117355.2,286046988.3,N
1457117375.9,286046987.7,Y
1457117395.7,286046995.6,P
1457117415.6,286046995.9,N
1457117435.4,286046995.4,N
1457117455.2,286046999.2,N
1457117475.1,286046999.3,N
1457117476.0,286046999.3,N
1457117495.8,286046994.6,N
1457117515.6,286046992.4,N
1457117535.5,286046990.1,Y
1457117555.3,286046999.1,P
1457117575.1,286046996.8,N
1457117595.9,286046996.6,N
1457117615.7,286046999.2,N
1457117635.5,286046995.9,N
1457117655.4,286046994.6,Y
1457117675.2,286046996.2,P
1457117695.0,286046997.6,P
1457117695.9,286046997.6,P
1457117715.8,286046996.5,Y
1457117735.6,286047001.1,P
1457117755.4,286046999.3,N
1457117775.3,286046997.4,N
1457117795.1,286046995.7,N
1457117796.0,286046995.7,N
1457117815.8,286046994.4,N
1457117835.7,286046992.3,Y
1457117855.5,286046993.9,P
1457117875.3,286046993.4,P
1457117895.2,286046995.9,N
1457117915.9,286046995.8,N
1457117935.7,286046996.2,N
1457117955.6,286046995.8,Y
1457117975.4,286047001.0,P
1457117995.2,286047000.2,N
